Flag for Netherlands Weather past 2 weeks in Groningen, Netherlands

Now
45 °F

Scattered clouds.


Feels Like: 37 °F
Forecast: 40 / 49 °F
Wind: 18 mph from West

Location: Groningen Eelde Airport

Current Time: Mar 30, 2015 at 6:38:13 PM

Latest Report: Mar 30, 2015 at 5:55 PM


Visibility: N/A

Pressure: 29.71 "Hg

Humidity: 61%

Dew point: 32 °F

Location of GroningenLocation

Historic Weather in Groningen — Graph

°F

Groningen temperature yesterday

Maximum temperature yesterday: 50 °F (at 12:25 AM)
Minimum temperature yesterday: 43 °F (at 8:55 PM)
Average temperature yesterday: 48 °F

Past Weeks' High & Low Weather Summary

 TemperatureHumidityPressure
High59 °F (Mar 17, 2:25 PM)100% (Mar 17, 3:55 AM)30.39 "Hg (Mar 17, 3:55 AM)
Low28 °F (Mar 20, 12:55 AM)49% (Mar 22, 3:55 PM)29.00 "Hg (Mar 29, 6:55 PM)
Average43 °F83%29.99 "Hg
* Reported Mar 15 4:25 PM — Mar 30 5:25 PM, Groningen, Weather by CustomWeather, © 2015

Note: Actual official high and low records may vary slightly from our data, if they occured in-between our weather recording intervals... More about our weather records

Advertising

Groningen weather history for previous 24 hours

 ConditionsComfort  
Time TempWeatherWind HumidityBarometerVisibility
5:25 PM
Mon, Mar 30
45 °FPartly sunny.23 mph61%29.71 "HgN/A
4:55 PM46 °FBroken clouds.23 mph57%29.68 "HgN/A
4:25 PM45 °FScattered clouds.23 mph61%29.68 "HgN/A
3:55 PM46 °FMostly cloudy.24 mph62%29.65 "HgN/A
3:25 PM45 °FBroken clouds.26 mph61%29.65 "HgN/A
2:55 PM46 °FMostly cloudy.23 mph62%29.62 "HgN/A
2:25 PM46 °FBroken clouds.25 mph62%29.59 "HgN/A
1:55 PM45 °FPassing clouds.28 mph66%29.59 "HgN/A
1:25 PM45 °FLight rain. Cloudy.23 mph71%29.56 "HgN/A
12:55 PM45 °FBroken clouds.24 mph71%29.53 "HgN/A
12:25 PM43 °FBroken clouds.20 mph81%29.53 "HgN/A
11:55 AM45 °FScattered clouds.18 mph76%29.50 "HgN/A
11:25 AM45 °FMostly cloudy.23 mph71%29.47 "HgN/A
10:55 AM41 °FMostly cloudy.17 mph87%29.47 "HgN/A
10:25 AM45 °FBroken clouds.18 mph71%29.45 "HgN/A
9:55 AM45 °FBroken clouds.24 mph71%29.42 "HgN/A
9:25 AM43 °FBroken clouds.24 mph76%29.42 "HgN/A
8:55 AM43 °FBroken clouds.22 mph71%29.39 "HgN/A
8:25 AM43 °FMore clouds than sun.21 mph76%29.39 "HgN/A
7:55 AM43 °FPartly cloudy.23 mph71%29.36 "HgN/A
7:25 AM43 °FMostly cloudy.22 mph71%29.33 "HgN/A
6:55 AM43 °FPartly cloudy.23 mph76%29.33 "HgN/A
6:25 AM43 °FOvercast.21 mph71%29.30 "HgN/A
5:55 AM43 °FOvercast.22 mph71%29.30 "HgN/A
5:25 AM43 °FLight rain. Partly cloudy.23 mph76%29.30 "HgN/A
4:55 AM43 °FPassing clouds.16 mph76%29.30 "HgN/A
4:25 AM43 °FPassing clouds.20 mph76%29.30 "HgN/A
3:55 AM43 °FPartly cloudy.23 mph76%29.27 "HgN/A
3:25 AM45 °FPartly cloudy.22 mph81%29.27 "HgN/A
2:55 AM45 °FPassing clouds.18 mph81%29.27 "HgN/A
2:25 AM45 °FOvercast.18 mph87%29.27 "HgN/A
1:55 AM45 °FOvercast.13 mph87%29.27 "HgN/A
1:25 AM45 °FMostly cloudy.14 mph87%29.27 "HgN/A
12:55 AM45 °FPartly cloudy.16 mph81%29.27 "HgN/A
12:25 AM45 °FPartly cloudy.18 mph81%29.24 "HgN/A
11:55 PM
Sun, Mar 29
45 °FPassing clouds.14 mph81%29.24 "HgN/A
11:25 PM45 °FPassing clouds.16 mph81%29.24 "HgN/A
10:55 PM43 °FMostly cloudy.17 mph93%29.21 "HgN/A
10:25 PM43 °FOvercast.17 mph87%29.21 "HgN/A
9:55 PM43 °FDrizzle. Mostly cloudy.17 mph87%29.18 "HgN/A
9:25 PM43 °FOvercast.23 mph87%29.15 "HgN/A
8:55 PM43 °FDrizzle. Partly sunny.23 mph93%29.12 "HgN/A
8:25 PM45 °FLight rain. Broken clouds.25 mph93%29.06 "Hg3 mi
7:55 PM48 °FCloudy.24 mph87%29.00 "HgN/A
7:25 PM50 °FLight rain. Scattered clouds.20 mph88%29.00 "HgN/A
6:55 PM50 °FBroken clouds.25 mph94%29.00 "HgN/A
6:25 PM50 °FDrizzle. Broken clouds.23 mph94%29.03 "Hg3 mi
Weather by CustomWeather, © 2015

See weather overviewHow to use our weather pages